FW5872 Weather Reports


time (UTC)temp
C
wind
direction
speed
KPH
gust
KPH
rain 1hr
cm
rain 24hr
cm
rain mn
cm
humidity
%
barometer
mb
20260510071541 11 0 0.0 0.0 0.00 0.00 0.00 93 1011.1
20260510070031 11 0 0.0 0.0 0.00 0.00 0.00 92 1010.9
20260510064528 11 0 0.0 0.0 0.00 0.00 0.00 92 1011.0
20260510063029 12 0 0.0 0.0 0.00 0.00 0.00 92 1010.7
20260510061528 12 0 0.0 0.0 0.00 0.00 0.00 92 1010.7
20260510060035 12 0 0.0 0.0 0.00 0.00 0.00 91 1010.6
20260510054531 12 0 0.0 0.0 0.00 0.00 0.00 91 1010.8
20260510053027 12 0 0.0 0.0 0.00 0.00 0.00 91 1010.9
20260510051539 12 0 0.0 0.0 0.00 0.00 0.00 90 1010.9
20260510050027 13 0 0.0 0.0 0.00 0.00 0.00 90 1010.9
20260510044531 13 0 0.0 0.0 0.00 0.00 0.00 89 1010.9
20260510043034 13 0 0.0 0.0 0.00 0.00 0.00 88 1010.9
20260510041530 14 0 0.0 0.0 0.00 0.00 0.00 87 1010.8
20260510040030 14 0 0.0 0.0 0.00 0.00 0.00 86 1010.7
20260510034528 15 0 0.0 0.0 0.00 0.00 0.00 86 1010.6
20260510033033 15 0 0.0 0.0 0.00 0.00 0.00 85 1010.6
20260510031528 15 0 0.0 0.0 0.00 0.00 0.00 84 1010.7
20260510030030 15 0 0.0 0.0 0.00 0.00 0.00 84 1010.7
20260510024528 15 0 0.0 0.0 0.00 0.00 0.00 83 1010.6
20260510023031 15 0 0.0 0.0 0.00 0.00 0.00 83 1010.5
20260510021532 16 0 0.0 0.0 0.00 0.00 0.00 82 1010.4
20260510020028 16 0 0.0 0.0 0.00 0.00 0.00 81 1010.3
20260510014531 16 0 0.0 0.0 0.00 0.00 0.00 79 1010.2
20260510013030 16 0 0.0 0.0 0.00 0.00 0.00 79 1010.0
20260510011535 16 0 0.0 0.0 0.00 0.00 0.00 78 1009.6
20260510010038 17 0 0.0 0.0 0.00 0.00 0.00 76 1009.5
20260510004528 17 0 0.0 0.0 0.00 0.00 0.00 75 1009.3
20260510003029 17 0 0.0 0.0 0.00 0.00 0.00 73 1009.2
20260510001530 18 0 0.0 0.0 0.00 0.00 0.00 71 1009.0
20260510000032 19 0 0.0 0.0 0.00 0.00 0.00 70 1009.0
20260509234538 20 0 0.0 0.0 0.00 0.00 0.00 66 1008.9
20260509233031 20 0 0.0 0.0 0.00 0.00 0.00 65 1008.8
20260509231533 20 0 0.0 0.0 0.00 0.00 0.00 64 1008.7
20260509230030 20 0 0.0 0.0 0.00 0.00 0.00 62 1008.7
20260509224530 21 0 0.0 0.0 0.00 0.00 0.00 62 1008.8
20260509223030 21 0 0.0 0.0 0.00 0.00 0.00 57 1008.7
20260509221544 22 0 0.0 1.6 0.00 0.00 0.00 56 1008.7
20260509220030 22 0 0.0 3.2 0.00 0.00 0.00 56 1008.6
20260509214530 22 0 0.0 6.4 0.00 0.00 0.00 56 1008.7
20260509213030 22 0 0.0 4.8 0.00 0.00 0.00 55 1008.7
20260509211530 22 276 1.6 6.4 0.00 0.00 0.00 55 1008.7
20260509210030 22 0 0.0 3.2 0.00 0.00 0.00 57 1008.7
20260509204528 22 0 3.2 6.4 0.00 0.00 0.00 54 1008.7
20260509203033 22 252 3.2 6.4 0.00 0.00 0.00 55 1008.7
20260509201530 22 278 1.6 8.0 0.00 0.00 0.00 56 1008.6
20260509200032 22 8 0.0 9.7 0.00 0.00 0.00 58 1008.8
20260509194527 22 0 0.0 8.0 0.00 0.00 0.00 57 1009.1
20260509193031 22 37 0.0 3.2 0.00 0.00 0.00 59 1009.3
20260509191529 21 0 0.0 4.8 0.00 0.00 0.00 60 1009.5
20260509190041 21 243 1.6 11.3 0.00 0.00 0.00 59 1009.7
20260509184534 21 110 0.0 4.8 0.00 0.00 0.00 59 1009.7
20260509183037 20 179 0.0 1.6 0.00 0.00 0.00 63 1010.0
20260509181528 19 0 0.0 3.2 0.00 0.00 0.00 64 1010.0
20260509180027 20 0 0.0 1.6 0.00 0.00 0.00 63 1010.7
20260509174528 20 0 0.0 1.6 0.00 0.00 0.00 63 1010.9
20260509173036 20 0 0.0 4.8 0.00 0.00 0.00 65 1010.9
20260509171534 20 120 0.0 3.2 0.00 0.00 0.00 62 1011.0
20260509170036 18 0 0.0 1.6 0.00 0.00 0.00 65 1011.2
20260509164536 18 0 0.0 1.6 0.00 0.00 0.00 63 1011.2
20260509163029 19 0 0.0 1.6 0.00 0.00 0.00 63 1011.1
20260509161530 19 269 1.6 6.4 0.00 0.00 0.00 60 1011.1
20260509160028 20 287 0.0 4.8 0.00 0.00 0.00 62 1011.1
20260509154529 19 285 3.2 6.4 0.00 0.00 0.00 59 1011.2
20260509153033 18 286 3.2 8.0 0.00 0.00 0.00 60 1011.4
20260509151535 18 276 1.6 9.7 0.00 0.00 0.00 60 1011.5
20260509150031 18 50 0.0 4.8 0.00 0.00 0.00 60 1011.5
20260509144530 17 48 1.6 4.8 0.00 0.00 0.00 62 1011.9
20260509143030 16 0 0.0 6.4 0.00 0.00 0.00 65 1012.0
20260509141536 16 0 0.0 3.2 0.00 0.00 0.00 66 1012.1
20260509140034 15 263 1.6 4.8 0.00 0.00 0.00 65 1011.8
20260509134538 15 0 0.0 4.8 0.00 0.00 0.00 64 1012.1
20260509133034 15 264 0.0 3.2 0.00 0.00 0.00 64 1012.0
20260509131550 15 0 0.0 4.8 0.00 0.00 0.00 64 1012.0
20260509130043 15 264 1.6 8.0 0.00 0.00 0.00 63 1012.1
20260509124533 15 278 1.6 4.8 0.00 0.00 0.00 63 1012.1
20260509123033 15 0 0.0 4.8 0.00 0.00 0.00 65 1012.1
20260509121530 15 0 0.0 1.6 0.00 0.00 0.00 65 1011.8
20260509120032 14 34 0.0 3.2 0.00 0.00 0.00 63 1011.8
20260509114527 14 0 0.0 1.6 0.00 0.00 0.00 62 1011.7
20260509113028 14 0 0.0 4.8 0.00 0.00 0.00 62 1011.5
20260509111552 14 0 0.0 3.2 0.00 0.00 0.00 62 1011.5
20260509110029 14 0 0.0 1.6 0.00 0.00 0.00 61 1011.3
20260509104530 13 286 0.0 1.6 0.00 0.00 0.00 61 1011.4
20260509103030 13 0 0.0 0.0 0.00 0.00 0.00 61 1011.4
20260509101528 13 0 0.0 0.0 0.00 0.00 0.00 60 1011.2
20260509100035 13 0 0.0 0.0 0.00 0.00 0.00 60 1011.2
20260509094530 13 0 0.0 0.0 0.00 0.00 0.00 60 1011.1
20260509093030 14 278 0.0 4.8 0.00 0.00 0.00 60 1011.3
20260509091528 14 0 0.0 3.2 0.00 0.00 0.00 59 1011.3
20260509090029 14 258 0.0 4.8 0.00 0.00 0.00 58 1011.5
20260509084535 14 0 0.0 4.8 0.00 0.00 0.00 58 1011.5
20260509083031 14 0 0.0 3.2 0.00 0.00 0.00 58 1011.7
20260509081539 14 0 0.0 1.6 0.00 0.00 0.00 59 1011.9
20260509080027 14 105 0.0 3.2 0.00 0.00 0.00 57 1012.2
20260509074531 14 0 0.0 1.6 0.00 0.00 0.00 58 1012.0
20260509073028 14 0 0.0 1.6 0.00 0.00 0.00 58 1012.1